    Orbital elements:
    2023 LD                                                  Earth MOID = 0.0059 AU
    Epoch 2023 Feb. 25.0 TT = JDT 2460000.5                 Veres                   
    M 329.24501              (2000.0)            P               Q                  
    n   0.29915029     Peri.  178.00066     -0.23714498     +0.95776472             
    a   2.2141639      Node    78.25326     -0.89359958     -0.14938357             
    e   0.5388896      Incl.    9.56174     -0.38110635     -0.24570570             
    P   3.29           H   26.34          G   0.15           U   7                  
    Residuals in seconds of arc
    230607 703  0.8-  0.4+    230607 104  0.2+  0.1-    230607 C40  0.1-  1.6+
    230607 703  0.3+  0.4-    230607 L76  0.3-  0.1-    230607 L65  0.5-  0.1+
    230607 703  0.1+  0.4+    230607 L76  0.2+  0.0     230607 L65  0.1+  0.2+
    230607 703  1.9+  0.2+    230607 L76  0.4+  0.5-    230607 J95  0.1+  0.1-
    230607 I52  0.0   0.1+    230607 104  0.3+  0.1-    230607 J95  0.0   0.1-
    230607 I52  0.1+  0.0     230607 L76  0.1-  0.1+    230607 L65  0.0   0.2+
    230607 I52  0.1+  0.0     230607 M44  1.1+  0.1-    230607 Z80  0.2-  0.2-
    230607 I52  0.0   0.0     230607 M44  0.3-  0.3+    230607 J95  0.0   0.0
    230607 I52  0.2-  0.2+    230607 M44  0.2+  0.3-    230607 J95  0.1+  0.0
    230607 I52  0.1+  0.1-    230607 C40  0.1+  0.0     230607 L65  0.4-  0.2+
    230607 I52  0.1+  0.1+    230607 C40  0.2+  0.1-    230607 Z80  0.1-  0.3-
    230607 I52  0.3-  0.1+    230607 L47  0.2-  0.4-    230607 Z80  0.1-  0.0
    230607 G17  0.1-  0.7+    230607 C40  0.0   0.4+    230607 J69  0.1+  0.4-
    230607 G17  0.6+  0.2+    230607 L47  0.0   0.1+    230607 J69  0.3-  0.0
    230607 L76  0.4-  0.2+    230607 M50  0.8+  0.2-    230607 J69  0.1+  0.1+
    230607 104  0.2+  0.4-    230607 K78  0.4+  0.1+    230607 J69  0.1+  0.5-
    230607 L76  0.1+  0.4+    230607 M50  0.6+  0.1-    230608 958  1.0+  1.0-
    230607 L76  0.2-  0.0     230607 K78  0.0   0.1+    230608 958  0.2+  1.1-
    230607 L76  0.0   0.2-    230607 K78  0.0   0.0     230608 958  0.5-  0.3+
    230607 G17  0.2+  0.2-    230607 C40  0.5+  0.4+
    230607 L76  0.3-  0.3+    230607 C40 (0.1+  1.7+)
    
    Ephemeris:
    2023 LD                  a,e,i = 2.21, 0.54, 10                  q = 1.0210
    Date    TT    R. A. (2000) Decl.     Delta      r    Elong.  Phase     V
    2023 05 09    12 55 39.8 +40 45 34   0.1574  1.0856   115.2    57.3    24.6
    ...
    2023 05 24    13 00 17.3 +41 24 25   0.08339 1.0375   105.2    70.3    23.5
    ...
    2023 06 01    13 20 14.7 +40 11 10   0.04253 1.0245   103.3    74.3    22.1
    ...
    2023 06 07    14 55 13.6 +29 35 43   0.01246 1.0210   120.0    59.4    19.0
    2023 06 08    15 58 55.3 +17 56 40   0.0083911.0210   136.5    43.2    17.7
    2023 06 09    17 51 54.2 -08 57 51   0.0063581.0211   162.3    17.6    16.3
    ...
    2023 06 15    23 35 05.0 -44 43 08   0.03178 1.0246   105.5    72.8    21.5
    ...
    2023 06 23    00 09 46.9 -44 07 38   0.07272 1.0377   105.1    71.0    23.2
    ...
    2023 07 08    00 15 49.4 -44 05 20   0.1474  1.0858   114.3    58.6    24.5
    
    M. P. C. Staff               (C) Copyright 2023 MPC           M.P.E.C. 2023-L30
    


    Read MPEC 2023-L29 Read MPEC 2023-L31


    MPEC number:

    Enter an MPEC number in one of the following forms:

    • 1997-B01 (the full form)
    • J97B01 (the packed version of the full form)
    • B01 (the abbreviated form)